Flag for Canada Weather past 2 weeks in Burlington, Ontario, Canada

Now
13 °F

Cold.


Feels Like: -2 °F
Forecast: 13 / 21 °F
Wind: 15 mph from North

Location: Burlington Piers

Current Time: Jan 27, 2015 at 10:31:13 AM

Latest Report: Jan 27, 2015 at 9:00 AM


Visibility: N/A

Pressure: 30.09 "Hg

Humidity: 79%

Dew point: 8 °F

Location of BurlingtonLocation

Historic Weather in Burlington — Graph

°F

Burlington temperature yesterday

Maximum temperature yesterday: 22 °F (at 4:00 AM)
Minimum temperature yesterday: 14 °F (at 12:00 AM)
Average temperature yesterday: 19 °F

Past Weeks' High & Low Weather Summary

 TemperatureHumidityPressure
High44 °F (Jan 18, 4:00 AM)100% (Jan 12, 10:00 AM)30.84 "Hg (Jan 12, 10:00 AM)
Low-1 °F (Jan 13, 7:00 AM)32% (Jan 16, 2:00 PM)29.49 "Hg (Jan 24, 3:00 PM)
Average23 °F69%30.08 "Hg
* Reported Jan 12 9:00 AM — Jan 27 9:00 AM, Burlington, Weather by CustomWeather, © 2014

Note: Actual official high and low records may vary slightly from our data, if they occured in-between our weather recording intervals... More about our weather records

Advertising

Burlington weather history for previous 24 hours

 ConditionsComfort  
Time TempWeatherWind HumidityBarometerVisibility
9:00 AM
Jan 27
13 °FCold.15 mph79%30.09 "HgN/A
8:00 AM15 °FCold.14 mph71%30.08 "HgN/A
7:00 AM13 °FCold.14 mph72%30.06 "HgN/A
6:00 AM13 °FCold.15 mph70%30.05 "HgN/A
5:00 AM13 °FCold.17 mph70%30.03 "HgN/A
4:00 AM14 °FCold.16 mph74%30.02 "HgN/A
3:00 AM15 °FCold.18 mph71%30.01 "HgN/A
2:00 AM16 °FCold.18 mph68%29.99 "HgN/A
1:00 AM16 °FCold.17 mph72%30.00 "HgN/A
12:00 AM16 °FCold.18 mph73%30.00 "HgN/A
11:00 PM
Jan 26
17 °FCold.18 mph68%30.01 "HgN/A
10:00 PM17 °FCold.18 mph69%30.01 "HgN/A
9:00 PM20 °FCold.24 mph80%30.00 "HgN/A
8:00 PM21 °FCold.24 mph76%30.01 "HgN/A
7:00 PM21 °FCold.25 mph77%30.00 "HgN/A
6:00 PM22 °FCold.29 mph77%29.98 "HgN/A
5:00 PM20 °FCold.28 mph80%29.96 "HgN/A
4:00 PM20 °FCold.24 mph87%29.96 "HgN/A
3:00 PM20 °FCold.28 mph92%29.96 "HgN/A
2:00 PM21 °FCold.26 mph83%29.94 "HgN/A
1:00 PM16 °FCold.21 mph87%29.96 "HgN/A
12:00 PM18 °FCold.22 mph83%29.98 "HgN/A
11:00 AM21 °FCold.25 mph87%30.01 "HgN/A
10:00 AM14 °FCold.20 mph88%30.00 "HgN/A
Weather by CustomWeather, © 2014

See weather overviewHow to use our weather pages